Reflectivity
-20 -20 -20 -20 -20 -20 -20 -20 -20 -20 -20 -20 -20 -20 -20 -20 -20 3 -20 -20 -20 -20 -20 -20 -20 -20 -20 -20 -20 -20 -20 -20 -20 -20 -20 -20 -20 -20 -20 -20 -20 -20 -20
-20 -20 -20 -20 -20 -20 -20 -20 -20 -20 -20 -20 -20 -20 -20 -20 -20 -20 -20 -20 -20 -20 -20 -20 -20 -20 -20 -20 -20 -20 -20 -20 -20 -20 -20 -20 -20 -20 -20 -20 -20 -20 -20
-20 -20 -20 -20 -20 -20 -20 -20 -20 -20 -20 -20 -20 -20 -20 -20 -20 -20 -20 -20 -20 -20 -20 -20 -20 -20 -20 -20 -20 -20 -20 -20 -20 -20 -20 -20 -20 -20 -20 -20 -20 -20 -20
-20 -20 -20 -20 -20 -20 -20 -20 -20 -20 -20 -20 -20 -20 -20 -20 -20 -20 -20 -20 -20 -20 -20 -20 -20 -20 -20 -20 -20 -20 -20 -20 -20 -20 -20 -20 -20 -20 -20 -20 -20 -20 -20
-20 -20 -20 -20 -20 -20 -20 -20 -20 -20 -20 -20 -20 -20 -20 -20 -20 -20 -20 -20 -20 -20 -20 -20 -20 -20 -20 -20 -20 -20 -20 -20 -20 -20 -20 -20 -20 -20 -20 -20 -20 -20 -20
-20 -20 -20 -20 -20 -20 -20 -20 -20 -20 -20 -20 -20 -20 -20 -20 -20 -20 -20 -20 -20 -20 -20 -20 -20 -20 -20 -20 -20 -20 -20 -20 -20 -20 -20 -20 -20 -20 -20 -20 -20 -20 -20
-20 -20 -20 -20 -20 -20 -20 -20 -20 -20 -20 -20 -20 -20 -20 -20 -20 -20 -20 -20 -20 -20 -20 -20 -20 -20 -20 -20 -20 -20 -20 -20 -20 -20 -20 -20 -20 -20 -20 -20 -20 -20 -20
-20 -20 -20 -20 -20 -20 -20 -20 -20 -20 -20 -20 -20 -20 -20 -20 -20 -20 -20 -20 -20 -20 -20 -20 -20 -20 -20 -20 -20 -20 -20 -20 -20 -20 -20 -20 -20 -20 -20 -20 -20 -20 -20
-20 -20 -20 -20 -20 -20 -20 -20 -20 -20 -20 -20 -20 -20 -20 -20 -20 -20 -20 -20 -20 -20 -20 -20 -20 -20 -20 -20 -20 -20 -20 -20 -20 -20 -20 -20 -20 -20 -20 -20 -20 -20 -20
-20 -20 -20 -20 -20 -20 24 28 16 -20 -20 -20 -20 -20 -20 -20 -20 -20 -20 -20 -20 -20 -20 -20 -20 -20 -20 -20 -20 -20 -20 -20 -20 -20 -20 -17 4 -20 -20 -20 -20 -20 -20
-20 -20 -11 -20 -20 -20 -13 -20 -16 -20 -20 -20 -20 -20 -20 -20 -20 -20 -20 -20 -20 -20 -20 -20 -20 -20 -20 -20 -20 -20 -20 -20 -20 -20 -20 -20 -20 -20 -20 -20 -20 -20 -17
-2 -13 -12 4 -20 -20 -15 -2 -11 -20 -20 -20 -20 -20 -20 -20 -20 -20 -20 -20 -20 -20 -20 -20 -20 -20 -20 -20 -15 -20 -20 -3 -20 -20 -20 -20 -20 -20 -20 -20 -20 -20 -20
-20 -20 5 9 -20 -20 -20 -18 28 6 -20 -20 -20 -20 -20 -20 -20 -20 -20 -20 -20 -20 -20 -20 -20 -20 -20 -20 -20 -20 -20 -18 -20 -20 -20 -20 -20 -20 -20 -20 -20 -20 -20
-20 -16 -20 -20 -16 -20 -4 -16 -20 -20 -20 -20 -20 -20 -20 -20 -20 -20 -20 -20 -20 -20 -20 -20 -20 -20 -20 -20 -20 -20 -20 -20 -20 -20 -20 -20 -20 -20 -20 -20 -20 -20 -6
-20 2 -20 -19 13 7 -10 1 8 -20 -20 -20 -20 -20 -20 -20 -20 -1 -20 -20 -20 -20 -20 -20 -20 -20 -20 -20 -20 -20 -20 -20 -20 -20 -20 -20 -20 -20 -20 -20 -20 -11 -10
-10 -2 -12 -20 -10 -18 -20 -20 8 10 7 -20 -20 -20 -20 -20 -18 -20 -19 12 10 9 -14 -20 -20 -20 -20 -20 -20 -20 -20 -20 -20 -20 -20 -20 -20 -20 -20 -20 -20 -20 -20
-20 -20 -20 -7 -20 -20 -20 -20 -20 -13 10 10 10 -3 -20 -20 2 22 11 12 32 15 -20 -20 -20 -20 -20 -20 -20 -20 -20 -20 -20 -20 -20 -20 -20 -20 -19 -20 -20 -20 -20
-20 6 -14 -20 -20 -20 -20 -3 -20 -11 -13 -20 7 9 13 14 11 11 13 12 -12 5 -20 -14 -15 -20 -20 -20 -17 -20 -7 -20 -19 -19 -20 -20 -20 -20 -20 -20 -15 -20 2
-20 -20 -20 -20 -8 -9 -20 -20 -13 -20 -9 -9 -15 3 6 8 18 17 8 -20 -20 -20 -20 -20 -20 -20 -20 -19 -10 -20 -20 -20 -20 -19 -20 -20 -7 -16 -15 -20 -12 9 15
-20 -9 -17 -5 -19 -20 -20 -10 -5 -5 15 4 2 -8 23 10 -18 -20 -20 -20 -20 -20 -20 -20 -20 -1 4 -19 -8 -3 -18 -16 -20 -20 -20 -12 -12 -12 -4 13 8 8 -20
-19 13 16 -11 -20 -20 -20 -4 -20 -10 -20 6 -0 -6 11 -9 2 -4 -20 -20 -20 -14 32 -13 14 -19 35 -15 -19 7 21 -20 -19 -3 -3 -4 28 29 28 33 29 20 -20
-5 -20 -7 -12 -20 -20 -20 -4 -13 -13 -20 2 -20 0 16 30 -9 -20 -20 -20 -20 -20 -20 3 -8 -20 -20 -20 -18 -14 -12 -20 -9 -15 -8 -11 -9 17 29 27 25 25 -20
-20 -20 10 5 -12 15 -13 -20 6 -2 -9 17 3 -11 -8 -4 8 -20 -20 -20 -15 -20 -20 -20 -16 -14 -20 -20 -20 -20 -20 -8 -15 -20 -20 -15 26 -4 14 20 -14 -20 -10
-20 -20 -13 -9 -15 11 1 -20 -13 5 6 11 7 11 -3 -16 -20 -20 -20 -19 10 6 9 -7 16 -13 -15 -14 -3 13 3 -11 -20 -1 6 24 28 16 23 15 -14 8 -0
-16 -20 -4 19 14 -9 -9 -7 -17 -1 1 4 20 14 4 -2 10 11 -6 5 7 9 9 3 -3 1 28 31 24 23 8 -11 -20 -19 -20 7 31 25 20 20 -1 -13 -17
-5 9 -6 -17 -11 3 -1 15 6 15 8 10 8 9 14 3 10 6 9 -4 -3 14 -6 1 4 6 7 12 21 25 20 20 20 -4 -18 -7 8 38 25 -16 -1 13 15
Wind_Speed
12 11 10 9 9 7 9 9 8 5 6 6 6 6 7 7 6 5 5 4 5 4 4 4 4 3 2 2 1 1 1 2 1 2 2 2 3 6 7 6 5 4 6
13 12 12 11 10 10 10 10 9 9 6 7 7 7 7 7 7 8 7 6 6 6 6 5 6 3 4 3 3 3 2 3 2 3 2 2 3 4 5 6 4 6 6
9 11 10 9 11 12 11 9 10 9 9 7 7 8 8 8 8 9 9 8 7 7 6 6 7 5 5 4 4 4 3 3 3 3 3 1 2 3 4 3 4 6 5
10 11 12 12 12 13 12 11 11 11 10 10 10 9 8 8 8 8 9 9 8 7 7 7 7 6 7 6 5 5 4 4 3 4 4 4 3 3 3 4 6 3 7
14 15 16 14 12 11 10 10 11 10 11 11 10 10 9 8 8 9 9 10 10 9 8 7 8 9 10 8 5 5 5 5 4 5 5 3 4 3 4 2 4 6 5
14 16 14 13 13 13 12 11 10 12 12 10 11 12 11 9 12 14 11 9 10 9 9 8 8 8 10 11 12 11 8 7 7 4 4 6 6 5 3 4 4 4 4
8 12 13 14 13 13 12 11 12 13 11 12 12 12 13 13 15 16 16 9 9 10 10 9 8 8 9 9 10 12 12 13 13 8 9 7 8 5 3 5 4 3 4
3 8 10 11 12 12 12 13 13 12 12 12 13 13 13 12 15 18 18 13 11 11 11 11 11 10 10 10 9 9 10 9 9 9 11 11 10 8 7 5 5 5 5
4 4 8 11 13 12 14 14 13 11 11 12 11 12 14 14 17 18 14 12 12 13 11 12 12 11 11 15 10 10 10 11 9 13 13 13 12 10 5 3 6 5 5
7 6 7 6 11 13 15 13 11 10 12 9 12 12 15 15 15 19 16 11 13 11 11 10 15 15 13 15 12 10 11 13 8 8 7 8 11 11 11 10 7 7 5
7 5 6 5 7 10 11 10 10 11 10 11 11 11 13 14 14 19 20 14 12 11 11 10 10 18 17 16 17 11 13 11 9 8 8 7 7 7 6 8 9 7 6
7 4 5 6 6 6 6 11 11 11 11 12 11 10 10 13 16 16 20 23 17 13 13 10 11 14 16 17 13 17 15 7 7 8 7 8 8 8 8 8 10 10 9
8 5 5 7 7 7 8 7 9 12 12 12 11 11 11 10 11 18 20 21 23 14 12 12 13 15 16 14 16 15 13 7 9 9 10 10 9 8 7 5 8 10 10
7 9 4 4 7 8 7 7 9 11 11 12 12 12 11 10 10 10 11 10 19 15 17 11 10 9 11 10 7 10 9 8 9 9 9 8 5 5 6 6 6 6 6
7 8 7 5 6 8 8 8 10 13 13 12 13 12 12 12 12 13 12 11 11 13 9 9 10 9 10 9 8 8 7 8 9 9 8 8 7 6 7 7 7 6 8
8 8 6 5 5 6 7 8 12 14 11 16 14 14 11 13 14 16 16 13 14 9 7 11 11 10 11 13 13 11 9 11 11 9 9 8 8 8 7 6 7 9 9
6 8 7 7 7 7 6 7 7 8 12 12 13 15 15 11 15 18 16 15 16 12 10 10 11 10 10 12 12 11 11 10 10 9 10 10 9 9 6 7 8 9 9
5 8 8 8 8 8 6 8 5 8 10 8 13 14 19 16 12 16 14 11 3 5 10 10 10 10 10 10 10 10 9 8 9 9 9 10 10 9 8 8 9 10 9
8 7 7 8 9 10 8 8 8 9 11 10 4 3 8 9 13 8 12 10 11 10 11 11 11 10 9 9 9 9 10 9 9 8 9 9 9 9 9 7 5 4 5
9 16 14 10 9 9 8 8 9 10 11 10 8 9 5 5 6 8 8 10 11 11 9 11 11 10 10 10 9 9 8 9 9 9 8 6 5 5 5 5 5 7 7
7 10 15 11 10 10 10 10 9 9 12 9 10 9 14 9 8 8 9 11 12 12 11 10 9 9 9 9 8 8 9 8 7 6 5 6 6 5 4 4 5 5 5
10 8 9 11 10 11 10 10 9 10 11 13 11 7 15 10 4 6 7 8 7 7 6 8 7 7 7 8 8 8 7 6 5 5 6 6 5 4 5 5 6 5 5
9 10 11 12 13 15 13 12 10 12 11 12 10 4 3 4 3 4 5 5 6 5 5 5 4 4 5 4 2 5 9 8 8 7 6 4 5 6 7 6 6 5 5
7 8 8 7 6 7 9 10 10 11 9 10 7 5 5 6 7 8 7 7 7 7 7 8 8 10 7 7 7 7 8 7 3 1 8 11 5 6 5 5 5 5 5
3 3 2 2 2 2 3 3 3 1 1 2 4 6 7 8 8 8 8 8 9 9 11 9 9 13 13 12 10 12 11 17 11 8 6 4 12 6 3 4 5 5 5
3 3 3 4 4 4 4 5 5 5 3 7 8 9 8 10 9 8 8 10 10 11 11 10 15 18 17 12 14 16 14 16 14 15 11 9 11 10 5 6 8 5 5
Wind_Direction
202 195 194 195 193 192 192 188 190 179 192 193 188 193 197 192 195 194 197 193 204 213 227 234 241 212 221 228 225 224 191 168 256 289 267 296 296 324 328 337 340 345 328
197 197 197 193 191 198 197 196 186 198 181 194 185 195 197 200 193 202 206 196 203 219 224 220 241 230 231 219 226 236 241 202 214 268 267 284 268 310 308 316 331 329 324
197 201 202 196 187 201 209 200 191 193 197 189 185 198 199 201 195 203 207 209 208 210 218 220 236 218 237 222 226 242 242 230 217 241 285 274 281 307 315 310 310 313 326
194 203 207 203 202 205 202 196 202 197 199 199 198 201 200 197 200 202 205 207 214 220 218 217 230 224 229 235 234 232 242 244 237 249 270 277 266 281 288 298 318 314 325
201 201 207 207 206 205 207 200 200 203 208 206 195 202 201 195 202 202 204 212 211 216 225 229 228 226 221 228 231 236 227 244 252 259 269 271 277 286 296 310 292 318 308
212 213 214 210 204 202 203 204 195 202 211 205 207 206 203 207 197 196 197 208 211 211 218 227 236 229 233 232 232 235 226 234 245 247 262 268 278 276 269 288 296 320 321
235 218 210 211 211 210 208 203 207 203 198 208 212 209 211 212 199 201 199 210 210 215 214 219 225 231 223 239 235 232 238 235 235 247 256 254 269 263 269 281 271 258 271
288 226 216 209 219 213 207 209 214 210 204 204 210 211 212 217 202 206 203 211 215 215 214 217 221 224 217 220 236 248 247 243 231 228 229 248 251 258 233 268 282 274 275
346 288 238 213 220 217 215 214 215 212 211 209 207 206 213 223 203 209 199 215 223 226 215 217 216 226 220 208 224 242 252 256 236 233 235 235 239 245 237 246 260 265 278
328 298 279 252 228 220 222 219 214 214 216 213 211 209 212 223 205 205 199 220 227 230 225 218 211 221 211 202 211 230 245 254 245 250 245 250 242 249 215 221 246 243 252
303 298 290 285 267 242 221 215 212 211 219 218 219 216 218 214 221 199 196 211 224 226 229 225 220 210 220 208 207 224 232 245 245 243 252 253 254 248 233 213 222 218 227
274 285 302 283 274 266 246 215 209 202 206 215 219 225 223 223 214 205 200 203 216 224 226 226 230 204 209 217 206 229 239 234 252 255 257 259 255 251 249 238 221 217 225
282 271 253 283 291 263 249 237 222 210 215 218 218 222 224 221 222 208 200 205 214 220 229 227 215 204 212 221 218 219 220 226 239 243 248 253 246 254 256 239 238 236 230
260 280 275 286 281 279 271 238 231 230 219 219 216 222 220 217 217 208 208 208 222 218 231 230 226 207 212 225 217 219 220 215 220 230 241 249 251 233 238 230 246 225 226
242 255 259 245 251 272 269 269 240 232 229 221 221 215 209 215 214 202 195 204 209 219 210 230 232 222 230 234 233 233 212 203 215 225 231 235 239 241 241 232 233 219 220
240 252 250 257 261 257 269 275 237 236 264 249 224 215 218 215 190 198 200 202 208 160 195 223 221 224 230 235 238 234 220 213 221 219 220 223 227 224 231 224 224 225 228
243 252 262 256 259 256 257 263 286 279 253 242 238 241 224 203 190 200 201 200 209 165 218 217 222 217 220 230 234 231 229 221 220 220 221 219 219 222 202 220 223 230 235
267 246 260 263 260 259 254 264 250 267 278 250 224 217 223 218 197 196 192 128 171 222 224 227 223 217 217 221 226 229 230 222 213 217 219 224 217 208 207 218 222 230 238
265 256 251 258 257 260 260 263 265 263 263 271 234 220 225 201 201 186 170 203 213 215 215 224 226 229 214 215 223 224 223 221 219 219 224 222 219 211 223 220 207 202 227
272 260 247 251 256 254 249 253 261 262 262 253 243 237 143 136 184 190 191 209 225 224 215 217 222 221 221 210 215 222 220 219 216 215 216 206 187 185 186 177 189 209 199
266 266 262 253 237 246 252 250 254 260 265 263 253 229 190 202 202 185 197 214 220 228 228 216 212 217 222 215 214 220 218 215 202 186 164 161 164 175 182 180 174 202 178
267 262 265 264 263 251 243 248 251 252 261 265 263 219 181 213 168 215 210 216 217 226 220 211 201 203 206 205 198 200 196 180 186 159 150 156 164 181 213 200 187 179 162
262 267 257 254 251 253 252 246 243 246 254 256 250 224 181 198 133 103 95 76 63 47 28 40 56 67 26 16 22 176 169 165 165 157 157 174 199 167 176 185 165 151 158
262 256 261 287 263 265 260 254 251 253 256 259 231 192 175 117 104 96 89 86 79 72 64 64 57 57 45 42 38 30 26 1 7 160 161 139 162 132 141 145 151 152 146
283 283 283 307 328 323 318 325 294 274 85 113 96 99 99 95 93 98 100 95 88 82 79 78 70 69 53 51 60 71 56 59 57 53 29 82 114 86 122 135 133 125 130
28 54 52 43 35 27 38 30 9 354 69 88 87 81 90 90 89 90 93 97 105 99 92 89 85 78 73 64 66 62 59 52 55 53 68 58 55 70 27 59 67 80 102